La Junta, CO

9:54 PM MDT on June 25, 2017 (GMT -0600)
La Junta Municipal

Weather History for KLHX - March, 2013

Change the Weather History Date:

Thursday, March 21, 2013

  Actual Average Record
Temperature  
Mean Temperature 47 °F 46 °F  
Max Temperature 64 °F 61 °F 85 °F (2011)
Min Temperature 29 °F 30 °F 7 °F (1955)
Degree Days  
Heating Degree Days 18 19  
Month to date heating degree days 444 470  
Since 1 July heating degree days 4220 4571  
Cooling Degree Days 0 0  
Month to date cooling degree days 0 0  
Year to date cooling degree days 0 0  
Moisture  
Dew Point 23 °F    
Average Humidity 55    
Maximum Humidity 89    
Minimum Humidity 20    
Precipitation  
Precipitation 0.00 in 0.03 in 0.32 in (1952)
Month to date precipitation 0.20 0.49  
Year to date precipitation 0.31  
Sea Level Pressure  
Sea Level Pressure 29.60 in    
Wind  
Wind Speed 11 mph (NE)    
Max Wind Speed 33 mph    
Max Gust Speed 39 mph    
Visibility 10 miles    
Events      
T = Trace of Precipitation, MM = Missing Value Source: NWS Daily Summary

Daily Weather History Graph

Daily Weather History Graph

Search for Another Location

Airport or City:

Trip Planner

Search our weather history database for the weather conditions in past years. The results will help you decide how hot, cold, wet, or windy it might be!

Date:

Astronomy

Mar. 21, 2013 Rise Set
Actual Time 6:55 AM MDT 7:07 PM MDT
Civil Twilight 6:29 AM MDT 7:33 PM MDT
Nautical Twilight 5:58 AM MDT 8:04 PM MDT
Astronomical Twilight 5:27 AM MDT 8:35 PM MDT
Moon 1:43 PM MDT (3/21) 3:14 AM MDT (3/21)
Length of Visible Light 13h 04m
Length of Day
12h 11m
Waxing Gibbous, 69% of the Moon is Illuminated
Mar 21
Waxing Gibbous
Mar 27
Full
Apr 2
Last Quarter
Apr 10
New
Apr 18
First Quarter

Hourly Weather History & Observations

Time (MDT) Temp. Windchill Dew Point Humidity Pressure Visibility Wind Dir Wind Speed Gust Speed Precip Events Conditions
12:53 AM 36.0 °F 30.3 °F 17.1 °F 46% 29.68 in 10.0 mi West 6.9 mph - N/A   Clear
1:53 AM 36.0 °F 29.0 °F 17.1 °F 46% 29.68 in 10.0 mi West 9.2 mph - N/A   Clear
2:53 AM 34.0 °F 28.8 °F 16.0 °F 48% 29.66 in 10.0 mi West 5.8 mph - N/A   Clear
3:53 AM 33.1 °F 26.9 °F 15.1 °F 48% 29.63 in 10.0 mi West 6.9 mph - N/A   Clear
4:53 AM 30.9 °F 24.3 °F 16.0 °F 54% 29.62 in 10.0 mi WNW 6.9 mph - N/A   Clear
5:53 AM 35.1 °F 29.3 °F 17.1 °F 48% 29.60 in 10.0 mi WSW 6.9 mph - N/A   Clear
6:53 AM 34.0 °F 28.0 °F 16.0 °F 48% 29.61 in 10.0 mi WSW 6.9 mph - N/A   Clear
7:53 AM 33.1 °F - 17.1 °F 52% 29.62 in 10.0 mi Calm Calm - N/A   Clear
8:53 AM 41.0 °F - 18.0 °F 40% 29.60 in 10.0 mi Calm Calm - N/A   Clear
9:53 AM 48.9 °F - 21.0 °F 33% 29.55 in 10.0 mi NE 5.8 mph - N/A   Scattered Clouds
10:53 AM 54.0 °F - 21.0 °F 28% 29.53 in 10.0 mi ESE 6.9 mph - N/A   Clear
11:53 AM 55.0 °F - 21.0 °F 27% 29.52 in 10.0 mi ESE 4.6 mph - N/A   Mostly Cloudy
12:53 PM 55.9 °F - 21.0 °F 26% 29.49 in 10.0 mi ENE 10.4 mph - N/A   Scattered Clouds
1:53 PM 61.0 °F - 21.9 °F 22% 29.45 in 10.0 mi ENE 15.0 mph - N/A   Clear
2:53 PM 63.0 °F - 21.9 °F 21% 29.44 in 10.0 mi East 17.3 mph 23.0 mph N/A   Clear
3:53 PM 62.1 °F - 23.0 °F 22% 29.45 in 10.0 mi East 19.6 mph 25.3 mph N/A   Mostly Cloudy
4:53 PM 61.0 °F - 24.1 °F 24% 29.47 in 10.0 mi SE 8.1 mph - N/A   Mostly Cloudy
5:53 PM 59.0 °F - 25.0 °F 27% 29.47 in 10.0 mi ESE 18.4 mph - N/A   Scattered Clouds
6:53 PM 52.0 °F - 28.9 °F 41% 29.58 in 10.0 mi NNE 27.6 mph 38.0 mph N/A   Mostly Cloudy
7:07 PM 48.2 °F - 35.6 °F 62% 29.63 in 10.0 mi NNE 25.3 mph 35.7 mph N/A   Overcast
7:53 PM 44.1 °F 34.0 °F 36.0 °F 73% 29.67 in 10.0 mi NNE 29.9 mph 38.0 mph N/A   Clear
8:53 PM 42.1 °F 32.3 °F 35.1 °F 76% 29.71 in 10.0 mi North 24.2 mph 28.8 mph N/A   Clear
9:53 PM 39.9 °F 30.8 °F 34.0 °F 79% 29.74 in 10.0 mi NNE 18.4 mph - N/A   Mostly Cloudy
10:53 PM 37.0 °F 29.8 °F 32.0 °F 82% 29.76 in 10.0 mi NE 10.4 mph - N/A   Partly Cloudy
11:53 PM 36.0 °F - 32.0 °F 86% 29.80 in 10.0 mi Calm Calm - N/A   Partly Cloudy